When you browse on this site, cookies collect data to enhance your experience and personalize the content and advertising you see.
Visit our Privacy Policy to learn more. By continuing to use the site, you agree to this use of cookies and data.
  • In Austria
  • List of Countries
  • For 7 days
  • Water Temperature
  • Satellite Maps
  • Weather Map
  • News
  • Weather Widgets
  • user-avatar
    Login

    Hourly Weather Rohachyn

    Today, 10 December, Monday

    Time Temperature Precipitation Wind Pressure Humidity
    00:00 +1°C° 0 mm 3 mps 723 mmHg 84%
    01:00 +1°C° 0 mm 3 mps 723 mmHg 84%
    02:00 +2°C° 0 mm 2 mps 723 mmHg 86%
    03:00 +2°C° 0 mm 2 mps 723 mmHg 86%
    04:00 +2°C° 0 mm 2 mps 723 mmHg 85%
    05:00 +2°C° 0 mm 2 mps 723 mmHg 85%
    06:00 +2°C° 0.1 mm 2 mps 723 mmHg 86%
    07:00 +1°C° 0.1 mm 3 mps 723 mmHg 86%
    08:00 +1°C° 0 mm 3 mps 723 mmHg 86%
    09:00 +1°C° 0.2 mm 3 mps 724 mmHg 86%
    10:00 +2°C° 0.2 mm 3 mps 724 mmHg 86%
    11:00 +1°C° 0.2 mm 4 mps 724 mmHg 86%
    12:00 +1°C° 0.1 mm 4 mps 725 mmHg 85%
    13:00 +1°C° 0.1 mm 4 mps 725 mmHg 84%
    14:00 +3°C° 0.1 mm 4 mps 725 mmHg 84%
    15:00 +1°C° 0 mm 4 mps 725 mmHg 84%
    16:00 +1°C° 0 mm 4 mps 726 mmHg 84%
    17:00 0°C° 0 mm 4 mps 726 mmHg 85%
    18:00 0°C° 0 mm 4 mps 726 mmHg 85%
    19:00 -1°C° 0 mm 4 mps 727 mmHg 85%
    20:00 -1°C° 0 mm 4 mps 727 mmHg 85%
    21:00 -1°C° 0 mm 4 mps 727 mmHg 87%
    22:00 -2°C° 0 mm 4 mps 727 mmHg 88%
    23:00 -1°C° 0 mm 3 mps 728 mmHg 89%

    Tomorrow, 11 December, Tuesday

    Time Temperature Precipitation Wind Pressure Humidity
    00:00 -2°C° 0 mm 3 mps 728 mmHg 90%
    01:00 -2°C° 0 mm 3 mps 728 mmHg 91%
    02:00 -2°C° 0 mm 3 mps 728 mmHg 91%
    03:00 -2°C° 0 mm 3 mps 728 mmHg 92%
    04:00 -2°C° 0 mm 3 mps 729 mmHg 92%
    05:00 -2°C° 0 mm 3 mps 729 mmHg 93%
    06:00 -2°C° 0 mm 3 mps 729 mmHg 92%
    07:00 -2°C° 0 mm 3 mps 729 mmHg 91%
    08:00 -1°C° 0 mm 3 mps 729 mmHg 90%
    09:00 -1°C° 0 mm 2 mps 730 mmHg 87%
    10:00 +1°C° 0 mm 2 mps 730 mmHg 85%
    11:00 +1°C° 0 mm 2 mps 730 mmHg 82%
    12:00 +1°C° 0 mm 2 mps 730 mmHg 79%
    13:00 +2°C° 0 mm 2 mps 730 mmHg 77%
    14:00 +2°C° 0 mm 2 mps 730 mmHg 74%
    15:00 +2°C° 0 mm 1 mps 730 mmHg 77%
    16:00 +1°C° 0 mm 1 mps 730 mmHg 80%
    17:00 -1°C° 0 mm 0 mps 730 mmHg 84%
    18:00 -1°C° 0 mm 0 mps 730 mmHg 84%
    19:00 -1°C° 0 mm 0 mps 731 mmHg 85%
    20:00 0°C° 0 mm 1 mps 731 mmHg 85%
    21:00 0°C° 0 mm 1 mps 731 mmHg 85%
    22:00 0°C° 0 mm 1 mps 731 mmHg 85%
    23:00 0°C° 0 mm 1 mps 731 mmHg 85%

    Day after tomorrow, 12 December, Wednesday

    Time Temperature Precipitation Wind Pressure Humidity
    00:00 0°C° 0 mm 1 mps 731 mmHg 84%
    01:00 0°C° 0 mm 1 mps 731 mmHg 84%
    02:00 0°C° 0 mm 1 mps 731 mmHg 84%
    03:00 -1°C° 0 mm 1 mps 731 mmHg 84%
    04:00 -1°C° 0 mm 1 mps 731 mmHg 84%
    05:00 -1°C° 0 mm 1 mps 731 mmHg 84%
    06:00 -1°C° 0 mm 1 mps 731 mmHg 84%
    07:00 -1°C° 0 mm 1 mps 731 mmHg 85%
    08:00 -1°C° 0 mm 1 mps 732 mmHg 85%
    09:00 -2°C° 0 mm 2 mps 732 mmHg 83%
    10:00 -2°C° 0 mm 2 mps 732 mmHg 81%
    11:00 -1°C° 0 mm 3 mps 732 mmHg 79%
    12:00 -1°C° 0 mm 3 mps 731 mmHg 78%
    13:00 -2°C° 0 mm 4 mps 731 mmHg 78%
    14:00 -1°C° 0 mm 4 mps 731 mmHg 77%
    15:00 -2°C° 0 mm 5 mps 731 mmHg 80%
    16:00 -2°C° 0 mm 5 mps 731 mmHg 83%
    17:00 -4°C° 0 mm 5 mps 731 mmHg 86%
    18:00 -4°C° 0.2 mm 5 mps 731 mmHg 87%
    19:00 -4°C° 0.2 mm 6 mps 731 mmHg 88%
    20:00 -4°C° 0.2 mm 6 mps 731 mmHg 89%
    21:00 -4°C° 0.3 mm 6 mps 731 mmHg 89%
    22:00 -4°C° 0.3 mm 6 mps 731 mmHg 89%
    23:00 -4°C° 0.3 mm 6 mps 731 mmHg 89%

    13 December, Thursday

    Time Temperature Precipitation Wind Pressure Humidity
    00:00 -4°C° 0.5 mm 6 mps 730 mmHg 90%
    01:00 -4°C° 0.5 mm 6 mps 730 mmHg 90%
    02:00 -4°C° 0.5 mm 7 mps 730 mmHg 90%
    03:00 -4°C° 0.5 mm 6 mps 730 mmHg 90%
    04:00 -4°C° 0.5 mm 6 mps 730 mmHg 91%
    05:00 -4°C° 0.5 mm 6 mps 729 mmHg 91%
    06:00 -4°C° 0.3 mm 6 mps 729 mmHg 91%
    07:00 -4°C° 0.3 mm 6 mps 729 mmHg 91%
    08:00 -4°C° 0.3 mm 6 mps 729 mmHg 91%
    09:00 -4°C° 0.3 mm 6 mps 729 mmHg 91%
    10:00 -4°C° 0.3 mm 6 mps 730 mmHg 91%
    11:00 -4°C° 0.3 mm 6 mps 730 mmHg 90%
    12:00 -4°C° 0.3 mm 6 mps 730 mmHg 90%
    13:00 -4°C° 0.3 mm 6 mps 730 mmHg 90%
    14:00 -3°C° 0.3 mm 6 mps 730 mmHg 89%
    15:00 -4°C° 0.2 mm 5 mps 730 mmHg 90%
    16:00 -4°C° 0.2 mm 5 mps 730 mmHg 91%
    17:00 -4°C° 0.2 mm 5 mps 730 mmHg 91%
    18:00 -4°C° 0.2 mm 5 mps 731 mmHg 92%
    19:00 -3°C° 0.2 mm 4 mps 731 mmHg 92%
    20:00 -3°C° 0.2 mm 4 mps 731 mmHg 92%
    21:00 -3°C° 0.1 mm 4 mps 732 mmHg 92%
    22:00 -3°C° 0.1 mm 4 mps 732 mmHg 92%
    23:00 -3°C° 0.1 mm 4 mps 733 mmHg 92%

    14 December, Friday

    Time Temperature Precipitation Wind Pressure Humidity
    00:00 -3°C° 0.1 mm 4 mps 733 mmHg 92%
    01:00 -3°C° 0.1 mm 4 mps 733 mmHg 92%
    02:00 -2°C° 0.1 mm 3 mps 733 mmHg 92%
    03:00 -2°C° 0 mm 3 mps 734 mmHg 93%
    04:00 -4°C° 0 mm 3 mps 734 mmHg 93%
    05:00 -4°C° 0 mm 3 mps 735 mmHg 93%
    06:00 -4°C° 0 mm 3 mps 735 mmHg 93%
    07:00 -4°C° 0 mm 3 mps 736 mmHg 94%
    08:00 -2°C° 0 mm 3 mps 736 mmHg 94%
    09:00 -2°C° 0 mm 3 mps 737 mmHg 93%
    10:00 -2°C° 0 mm 3 mps 737 mmHg 92%
    11:00 -1°C° 0 mm 3 mps 738 mmHg 91%
    12:00 -1°C° 0 mm 3 mps 738 mmHg 91%
    13:00 -1°C° 0 mm 3 mps 739 mmHg 91%
    14:00 -1°C° 0 mm 3 mps 739 mmHg 91%
    15:00 -1°C° 0 mm 2 mps 739 mmHg 92%
    16:00 -2°C° 0 mm 2 mps 740 mmHg 93%
    17:00 -3°C° 0 mm 2 mps 740 mmHg 94%
    18:00 -1°C° 0 mm 1 mps 740 mmHg 94%
    19:00 -2°C° 0 mm 1 mps 741 mmHg 95%
    20:00 -2°C° 0 mm 1 mps 741 mmHg 95%
    21:00 -2°C° 0 mm 1 mps 741 mmHg 95%
    22:00 -2°C° 0 mm 1 mps 742 mmHg 95%
    23:00 -2°C° 0 mm 1 mps 742 mmHg 95%

    15 December, Saturday

    Time Temperature Precipitation Wind Pressure Humidity
    00:00 -2°C° 0 mm 1 mps 742 mmHg 95%
    01:00 -3°C° 0 mm 0 mps 742 mmHg 95%
    02:00 -3°C° 0 mm 0 mps 743 mmHg 95%
    03:00 -3°C° 0 mm 0 mps 743 mmHg 95%
    04:00 -3°C° 0 mm 0 mps 743 mmHg 95%
    05:00 -3°C° 0 mm 0 mps 743 mmHg 95%
    06:00 -3°C° 0 mm 0 mps 744 mmHg 94%
    07:00 -3°C° 0 mm 0 mps 744 mmHg 94%
    08:00 -3°C° 0 mm 0 mps 744 mmHg 94%
    09:00 -2°C° 0 mm 0 mps 745 mmHg 92%
    10:00 -2°C° 0 mm 0 mps 745 mmHg 91%
    11:00 -1°C° 0 mm 0 mps 745 mmHg 90%
    12:00 -1°C° 0 mm 0 mps 745 mmHg 90%
    13:00 0°C° 0 mm 1 mps 745 mmHg 90%
    14:00 0°C° 0 mm 1 mps 745 mmHg 89%
    15:00 -1°C° 0 mm 1 mps 745 mmHg 91%
    16:00 -1°C° 0 mm 1 mps 745 mmHg 92%
    17:00 -2°C° 0 mm 1 mps 746 mmHg 93%
    18:00 -2°C° 0 mm 1 mps 746 mmHg 94%
    19:00 -2°C° 0 mm 1 mps 746 mmHg 94%
    20:00 -2°C° 0 mm 1 mps 746 mmHg 95%
    21:00 -2°C° 0 mm 1 mps 746 mmHg 95%
    22:00 -2°C° 0 mm 1 mps 746 mmHg 95%
    23:00 -4°C° 0 mm 2 mps 746 mmHg 95%
    Show more